sat.trackr.live / text

‹ back to catalog

STARLINK-31687

NORAD 59798 · 2024-093S

PAYLOAD ACTIVE UNKNOWN

§ Identity

Operator
Country
US
Launch date
2024-05-18
Launch site
AFETR
Launch vehicle
Mass (kg)
RCS (m²)

Purposes: comms

External: N2YO · Heavens-Above · Gunter

§ Orbital elements

Epoch: 2026-09-21T11:22:08.261472Z

Period
94.27 min
Inclination
43.0017°
Eccentricity
0.0000600
Mean motion
15.27574519 rev/d
Perigee alt
482.7 km
Apogee alt
483.5 km
Semi-major
6,861.2 km
B*
-1.4984e-5
RAAN
183.5829°
Arg perigee
287.6666°
Mean anomaly
72.4120°
Rev number
13,263

§ Raw data

STARLINK-316871 59798U 24093S   26264.47370673 -.00000674  00000+0 -14984-4 0  99912 59798  43.0017 183.5829 0000600 287.6666  72.4120 15.27574519132635

JSON: /api/v1/satellites/59798 · /tle

For live sub-satellite position, see the globe view (requires WebGL).

§ Visibility from observer

Set your observer location to see the next 7 days of passes ≥ 10°. The values pass through the URL so the page stays shareable.

No JS? Fill the form by hand. The geolocation button needs JavaScript.